EJU84VV LEMG-LSGG

Flight info

Callsign EJU84VV
Flight time 1h 58m
Altitude 34000
Route BLN L27 YAKXU N871 TOPTU DCT TOU DCT GAI DCT MEN DCT NINUN DCT LATAM DCT ETREK DCT LUXAN G53 LTP Z16 BELUS
Aircraft A319/M-SDE2E3FGIJ1RWXYZ/LB1

Departure

Time 2026-05-05 19:04
Airport Málaga-Costa del Sol Airport (LEMG)

Arrival

Time 2026-05-05 21:03
Airport Geneva International Airport (LSGG)
Time Latitude Longitude Altitude Speed Heading
2026-05-05 18:35 36.67713 -4.49538 40 ft 0 kts 41°
2026-05-05 18:52 36.67706 -4.49546 42 ft 4 kts 40°
2026-05-05 18:52 36.67685 -4.49567 42 ft 4 kts 33°
2026-05-05 18:52 36.67661 -4.49582 40 ft 4 kts
2026-05-05 18:53 36.67641 -4.49575 38 ft 4 kts 315°
2026-05-05 18:53 36.67630 -4.49561 41 ft 0 kts 311°
2026-05-05 18:55 36.67631 -4.49562 41 ft 0 kts 311°
2026-05-05 18:55 36.67633 -4.49564 40 ft 0 kts 311°
2026-05-05 18:55 36.67636 -4.49569 39 ft 2 kts 311°
2026-05-05 18:56 36.67649 -4.49586 39 ft 4 kts 312°
2026-05-05 18:56 36.67670 -4.49616 42 ft 5 kts 311°
2026-05-05 18:56 36.67698 -4.49656 42 ft 7 kts 311°
2026-05-05 18:56 36.67735 -4.49707 42 ft 9 kts 310°
2026-05-05 18:57 36.67777 -4.49770 42 ft 10 kts 310°
2026-05-05 18:57 36.67833 -4.49806 42 ft 9 kts 10°
2026-05-05 18:57 36.67888 -4.49755 42 ft 10 kts 40°
2026-05-05 18:57 36.67944 -4.49693 42 ft 11 kts 42°
2026-05-05 18:58 36.68002 -4.49627 42 ft 11 kts 42°
2026-05-05 18:58 36.68053 -4.49571 42 ft 8 kts 41°
2026-05-05 18:58 36.68090 -4.49530 42 ft 6 kts 41°
2026-05-05 18:58 36.68126 -4.49490 42 ft 7 kts 42°
2026-05-05 18:59 36.68167 -4.49443 42 ft 9 kts 43°
2026-05-05 18:59 36.68223 -4.49384 41 ft 13 kts 41°
2026-05-05 18:59 36.68282 -4.49297 40 ft 13 kts 74°
2026-05-05 18:59 36.68253 -4.49193 40 ft 13 kts 117°
2026-05-05 19:00 36.68211 -4.49091 40 ft 13 kts 117°
2026-05-05 19:00 36.68168 -4.48990 40 ft 13 kts 119°
2026-05-05 19:00 36.68125 -4.48889 39 ft 14 kts 117°
2026-05-05 19:00 36.68076 -4.48772 38 ft 17 kts 118°
2026-05-05 19:01 36.68018 -4.48636 39 ft 19 kts 116°
2026-05-05 19:01 36.67954 -4.48482 40 ft 21 kts 118°
2026-05-05 19:01 36.67882 -4.48313 39 ft 23 kts 117°
2026-05-05 19:01 36.67813 -4.48147 36 ft 14 kts 116°
2026-05-05 19:02 36.67851 -4.48069 35 ft 0 kts 26°
2026-05-05 19:02 36.67853 -4.48068 35 ft 1 kts 26°
2026-05-05 19:02 36.67858 -4.48065 36 ft 1 kts 25°
2026-05-05 19:02 36.67874 -4.48055 35 ft 4 kts 26°
2026-05-05 19:03 36.67906 -4.48036 36 ft 6 kts 25°
2026-05-05 19:03 36.67951 -4.48040 37 ft 8 kts 318°
2026-05-05 19:03 36.67989 -4.48123 38 ft 17 kts 297°
2026-05-05 19:03 36.68152 -4.48512 39 ft 86 kts 297°
2026-05-05 19:04 36.68527 -4.49398 47 ft 142 kts 297°
2026-05-05 19:04 36.69016 -4.50588 423 ft 155 kts 300°
2026-05-05 19:04 36.69581 -4.51705 1018 ft 152 kts 312°
2026-05-05 19:04 36.70330 -4.52610 1683 ft 151 kts 317°
2026-05-05 19:05 36.70840 -4.53244 1950 ft 163 kts 315°
2026-05-05 19:05 36.71669 -4.54336 2256 ft 185 kts 313°
2026-05-05 19:05 36.72596 -4.55575 2632 ft 202 kts 313°
2026-05-05 19:05 36.73568 -4.56875 3246 ft 208 kts 313°
2026-05-05 19:06 36.74560 -4.58195 3999 ft 209 kts 314°
2026-05-05 19:06 36.75695 -4.59333 4760 ft 212 kts 333°
2026-05-05 19:06 36.77103 -4.59924 5478 ft 216 kts 342°
2026-05-05 19:06 36.78556 -4.60451 6203 ft 219 kts 342°
2026-05-05 19:07 36.80042 -4.60937 6870 ft 224 kts 351°
2026-05-05 19:07 36.81610 -4.60809 7458 ft 233 kts 13°
2026-05-05 19:07 36.83111 -4.59839 7849 ft 257 kts 37°
2026-05-05 19:07 36.84470 -4.58320 8531 ft 266 kts 39°
2026-05-05 19:08 36.85844 -4.56793 9281 ft 271 kts 39°
2026-05-05 19:08 36.87294 -4.55191 10039 ft 277 kts 39°
2026-05-05 19:08 36.88729 -4.53611 10735 ft 281 kts 38°
2026-05-05 19:08 36.90206 -4.51984 11465 ft 285 kts 38°
2026-05-05 19:09 36.91699 -4.50341 12190 ft 289 kts 38°
2026-05-05 19:09 36.93198 -4.48689 12913 ft 293 kts 38°
2026-05-05 19:09 36.94708 -4.47022 13621 ft 297 kts 38°
2026-05-05 19:09 36.96256 -4.45312 14275 ft 301 kts 38°
2026-05-05 19:10 36.97839 -4.43579 14895 ft 304 kts 36°
2026-05-05 19:10 36.99605 -4.42061 15249 ft 318 kts 29°
2026-05-05 19:10 37.01545 -4.40524 15386 ft 340 kts 28°
2026-05-05 19:10 37.03610 -4.38902 15526 ft 361 kts 29°
2026-05-05 19:11 37.05773 -4.37201 15930 ft 371 kts 29°
2026-05-05 19:11 37.07938 -4.35486 16500 ft 376 kts 29°
2026-05-05 19:11 37.10156 -4.33718 17115 ft 380 kts 29°
2026-05-05 19:11 37.12394 -4.31926 17723 ft 384 kts 30°
2026-05-05 19:12 37.14658 -4.30115 18319 ft 388 kts 29°
2026-05-05 19:12 37.16951 -4.28286 18840 ft 392 kts 29°
2026-05-05 19:12 37.19258 -4.26451 19382 ft 395 kts 29°
2026-05-05 19:12 37.21590 -4.24594 19926 ft 398 kts 29°
2026-05-05 19:13 37.23938 -4.22719 20467 ft 402 kts 29°
2026-05-05 19:13 37.26304 -4.20828 21003 ft 405 kts 29°
2026-05-05 19:13 37.28685 -4.18923 21578 ft 407 kts 29°
2026-05-05 19:13 37.31081 -4.17002 22105 ft 411 kts 29°
2026-05-05 19:14 37.33501 -4.15059 22645 ft 414 kts 29°
2026-05-05 19:14 37.35939 -4.13098 23164 ft 418 kts 28°
2026-05-05 19:14 37.38389 -4.11125 23655 ft 421 kts 28°
2026-05-05 19:14 37.40868 -4.09129 24062 ft 424 kts 28°
2026-05-05 19:15 37.43362 -4.07126 24474 ft 427 kts 28°
2026-05-05 19:15 37.45871 -4.05112 24869 ft 430 kts 28°
2026-05-05 19:15 37.48404 -4.03077 25254 ft 433 kts 28°
2026-05-05 19:15 37.50949 -4.01030 25631 ft 436 kts 28°
2026-05-05 19:16 37.53483 -3.98988 25994 ft 440 kts 28°
2026-05-05 19:16 37.56073 -3.96900 26355 ft 443 kts 28°
2026-05-05 19:16 37.58677 -3.94796 26732 ft 446 kts 28°
2026-05-05 19:16 37.61293 -3.92678 27086 ft 449 kts 28°
2026-05-05 19:17 37.63938 -3.90535 27446 ft 452 kts 28°
2026-05-05 19:17 37.66592 -3.88384 27815 ft 455 kts 28°
2026-05-05 19:17 37.69265 -3.86219 28143 ft 459 kts 28°
2026-05-05 19:17 37.71961 -3.84031 28493 ft 462 kts 28°
2026-05-05 19:18 37.74667 -3.81833 28826 ft 465 kts 28°
2026-05-05 19:18 37.77399 -3.79610 29159 ft 468 kts 27°
2026-05-05 19:18 37.80140 -3.77376 29495 ft 471 kts 27°
2026-05-05 19:18 37.82962 -3.75262 29799 ft 470 kts 21°
2026-05-05 19:19 37.85959 -3.73678 30111 ft 465 kts 12°
2026-05-05 19:19 37.89062 -3.72496 30394 ft 466 kts 10°
2026-05-05 19:19 37.92177 -3.71323 30669 ft 468 kts 10°
2026-05-05 19:19 37.95305 -3.70136 30947 ft 470 kts 10°
2026-05-05 19:20 37.98437 -3.68936 31243 ft 472 kts 10°
2026-05-05 19:20 38.01593 -3.67719 31533 ft 473 kts 10°
2026-05-05 19:20 38.04727 -3.66510 31926 ft 472 kts 10°
2026-05-05 19:20 38.07875 -3.65295 32325 ft 472 kts 10°
2026-05-05 19:21 38.11013 -3.64084 32708 ft 471 kts 10°
2026-05-05 19:21 38.14148 -3.62881 33085 ft 471 kts 10°
2026-05-05 19:21 38.17278 -3.61633 33451 ft 472 kts 12°
2026-05-05 19:21 38.20345 -3.60281 33814 ft 474 kts 13°
2026-05-05 19:22 38.23432 -3.58815 33948 ft 472 kts 14°
2026-05-05 19:22 38.26464 -3.57314 33964 ft 464 kts 15°
2026-05-05 19:22 38.32458 -3.54356 33968 ft 460 kts 14°
2026-05-05 19:23 38.38448 -3.51504 33963 ft 459 kts 13°
2026-05-05 19:23 38.44427 -3.48701 33966 ft 459 kts 13°
2026-05-05 19:24 38.50425 -3.45859 33969 ft 459 kts 13°
2026-05-05 19:24 38.56410 -3.43012 33972 ft 459 kts 13°
2026-05-05 19:25 38.62380 -3.40170 33968 ft 459 kts 13°
2026-05-05 19:25 38.68349 -3.37325 33977 ft 459 kts 13°
2026-05-05 19:26 38.74324 -3.34466 33981 ft 459 kts 13°
2026-05-05 19:26 38.80242 -3.31628 33983 ft 459 kts 13°
2026-05-05 19:27 38.86225 -3.28763 33987 ft 458 kts 12°
2026-05-05 19:27 38.92192 -3.25899 33986 ft 458 kts 12°
2026-05-05 19:28 38.98156 -3.23025 33980 ft 457 kts 12°
2026-05-05 19:28 39.04111 -3.20154 33982 ft 457 kts 12°
2026-05-05 19:29 39.10065 -3.17281 33987 ft 457 kts 12°
2026-05-05 19:29 39.16011 -3.14405 33986 ft 456 kts 12°
2026-05-05 19:30 39.21961 -3.11521 33987 ft 456 kts 12°
2026-05-05 19:30 39.27848 -3.08660 33969 ft 456 kts 12°
2026-05-05 19:31 39.33786 -3.05776 33978 ft 455 kts 12°
2026-05-05 19:31 39.39714 -3.02882 33981 ft 456 kts 13°
2026-05-05 19:32 39.45632 -2.99980 33984 ft 456 kts 13°
2026-05-05 19:32 39.51569 -2.97053 33984 ft 455 kts 13°
2026-05-05 19:33 39.57489 -2.94140 33990 ft 456 kts 13°
2026-05-05 19:33 39.63377 -2.91239 33986 ft 455 kts 13°
2026-05-05 19:34 39.69296 -2.88322 33989 ft 455 kts 13°
2026-05-05 19:35 39.78162 -2.83938 33993 ft 454 kts 13°
2026-05-05 19:35 39.84060 -2.81010 33988 ft 454 kts 13°
2026-05-05 19:36 39.89962 -2.78089 33971 ft 453 kts 13°
2026-05-05 19:36 39.95853 -2.75168 33970 ft 453 kts 13°
2026-05-05 19:37 40.01755 -2.72223 33968 ft 454 kts 13°
2026-05-05 19:37 40.07645 -2.69284 33968 ft 454 kts 13°
2026-05-05 19:38 40.13542 -2.66342 33966 ft 453 kts 13°
2026-05-05 19:38 40.19437 -2.63395 33967 ft 454 kts 13°
2026-05-05 19:39 40.25325 -2.60430 33979 ft 454 kts 13°
2026-05-05 19:39 40.31218 -2.57466 33984 ft 453 kts 13°
2026-05-05 19:40 40.37102 -2.54486 33978 ft 456 kts 16°
2026-05-05 19:40 40.42830 -2.50801 33984 ft 459 kts 19°
2026-05-05 19:41 40.48545 -2.47061 33984 ft 459 kts 19°
2026-05-05 19:41 40.54217 -2.43341 33988 ft 459 kts 19°
2026-05-05 19:42 40.59926 -2.39584 33985 ft 458 kts 19°
2026-05-05 19:42 40.65632 -2.35838 33993 ft 458 kts 19°
2026-05-05 19:43 40.71374 -2.32060 34002 ft 458 kts 19°
2026-05-05 19:43 40.77031 -2.28319 34012 ft 458 kts 19°
2026-05-05 19:44 40.82764 -2.24532 34019 ft 457 kts 19°
2026-05-05 19:44 40.88404 -2.20801 34020 ft 456 kts 18°
2026-05-05 19:45 40.94079 -2.17029 34025 ft 456 kts 19°
2026-05-05 19:45 40.99745 -2.13253 34009 ft 456 kts 19°
2026-05-05 19:46 41.05406 -2.09470 34008 ft 455 kts 19°
2026-05-05 19:46 41.10940 -2.05282 34004 ft 461 kts 25°
2026-05-05 19:47 41.16362 -2.00753 34004 ft 461 kts 25°
2026-05-05 19:47 41.21791 -1.96213 34010 ft 461 kts 25°
2026-05-05 19:48 41.27203 -1.91680 34006 ft 461 kts 25°
2026-05-05 19:48 41.32613 -1.87141 34007 ft 460 kts 25°
2026-05-05 19:49 41.38035 -1.82587 34017 ft 460 kts 25°
2026-05-05 19:49 41.43380 -1.78078 34007 ft 460 kts 26°
2026-05-05 19:50 41.48784 -1.73506 33999 ft 460 kts 26°
2026-05-05 19:50 41.54156 -1.68959 33988 ft 460 kts 26°
2026-05-05 19:51 41.59533 -1.64402 33995 ft 460 kts 26°
2026-05-05 19:51 41.64938 -1.59822 34000 ft 460 kts 26°
2026-05-05 19:52 41.70333 -1.55236 34006 ft 459 kts 27°
2026-05-05 19:52 41.75725 -1.50625 34006 ft 459 kts 27°
2026-05-05 19:53 41.81098 -1.46023 34005 ft 459 kts 27°
2026-05-05 19:53 41.86482 -1.41411 34002 ft 459 kts 27°
2026-05-05 19:54 41.91861 -1.36796 33995 ft 458 kts 27°
2026-05-05 19:54 41.97243 -1.32175 33989 ft 459 kts 27°
2026-05-05 19:55 42.02616 -1.27551 33989 ft 459 kts 27°
2026-05-05 19:55 42.07984 -1.22915 33984 ft 459 kts 27°
2026-05-05 19:56 42.13105 -1.17710 33985 ft 463 kts 35°
2026-05-05 19:56 42.18073 -1.12189 33981 ft 463 kts 35°
2026-05-05 19:57 42.18879 -1.11295 33983 ft 463 kts 35°
2026-05-05 19:57 42.23815 -1.06026 33977 ft 463 kts 35°
2026-05-05 19:58 42.28726 -1.00475 33975 ft 463 kts 37°
2026-05-05 19:58 42.33623 -0.94875 33967 ft 463 kts 36°
2026-05-05 19:59 42.38587 -0.89292 33964 ft 464 kts 36°
2026-05-05 19:59 42.43405 -0.83501 33968 ft 467 kts 46°
2026-05-05 20:00 42.46762 -0.77732 33964 ft 469 kts 50°
2026-05-05 20:00 42.50737 -0.70724 33966 ft 469 kts 50°
2026-05-05 20:01 42.54722 -0.63713 33968 ft 469 kts 50°
2026-05-05 20:01 42.58702 -0.56696 33973 ft 469 kts 50°
2026-05-05 20:02 42.62670 -0.49665 33977 ft 469 kts 51°
2026-05-05 20:02 42.66630 -0.42616 33987 ft 469 kts 51°
2026-05-05 20:03 42.70592 -0.35562 33988 ft 469 kts 51°
2026-05-05 20:03 42.74545 -0.28519 33989 ft 469 kts 51°
2026-05-05 20:04 42.78476 -0.21486 33990 ft 469 kts 51°
2026-05-05 20:04 42.82453 -0.14523 33993 ft 468 kts 50°
2026-05-05 20:05 42.86605 -0.07697 34000 ft 468 kts 49°
2026-05-05 20:05 42.90774 -0.00899 34006 ft 468 kts 49°
2026-05-05 20:06 42.94904 0.05953 34002 ft 467 kts 50°
2026-05-05 20:06 42.98993 0.12829 34002 ft 466 kts 50°
2026-05-05 20:07 43.03067 0.19687 34001 ft 466 kts 50°
2026-05-05 20:07 43.07137 0.26538 33995 ft 466 kts 50°
2026-05-05 20:08 43.11228 0.33422 33997 ft 466 kts 50°
2026-05-05 20:08 43.15302 0.40307 34001 ft 466 kts 50°
2026-05-05 20:09 43.19347 0.47157 33997 ft 465 kts 50°
2026-05-05 20:09 43.23413 0.54057 33995 ft 465 kts 51°
2026-05-05 20:10 43.27480 0.60958 33994 ft 465 kts 51°
2026-05-05 20:10 43.31534 0.67872 33992 ft 465 kts 51°
2026-05-05 20:11 43.35576 0.74799 33990 ft 465 kts 51°
2026-05-05 20:11 43.39619 0.81725 33994 ft 464 kts 51°
2026-05-05 20:12 43.43659 0.88659 33990 ft 464 kts 51°
2026-05-05 20:12 43.47691 0.95600 33981 ft 464 kts 51°
2026-05-05 20:13 43.51716 1.02546 33977 ft 464 kts 52°
2026-05-05 20:13 43.55733 1.09508 33964 ft 464 kts 52°
2026-05-05 20:14 43.59751 1.16468 33963 ft 464 kts 52°
2026-05-05 20:14 43.63732 1.23386 33958 ft 463 kts 52°
2026-05-05 20:15 43.67756 1.30403 33957 ft 463 kts 52°
2026-05-05 20:15 43.71644 1.37433 33956 ft 463 kts 54°
2026-05-05 20:16 43.75438 1.44631 33956 ft 463 kts 55°
2026-05-05 20:16 43.79216 1.51838 33958 ft 463 kts 54°
2026-05-05 20:17 43.83024 1.59020 33956 ft 463 kts 54°
2026-05-05 20:17 43.86844 1.66196 33956 ft 463 kts 54°
2026-05-05 20:18 43.90657 1.73386 33956 ft 463 kts 55°
2026-05-05 20:18 43.94451 1.80582 33957 ft 463 kts 55°
2026-05-05 20:19 43.98201 1.87857 33957 ft 463 kts 56°
2026-05-05 20:19 44.01850 1.95225 33953 ft 463 kts 57°
2026-05-05 20:20 44.05471 2.02592 33950 ft 463 kts 57°
2026-05-05 20:20 44.09123 2.09981 33950 ft 463 kts 57°
2026-05-05 20:21 44.12787 2.17370 33951 ft 463 kts 57°
2026-05-05 20:21 44.16416 2.24709 33948 ft 463 kts 57°
2026-05-05 20:22 44.20065 2.32103 33949 ft 463 kts 57°
2026-05-05 20:22 44.23703 2.39506 33950 ft 463 kts 57°
2026-05-05 20:23 44.27336 2.46935 33950 ft 463 kts 57°
2026-05-05 20:23 44.30964 2.54356 33951 ft 463 kts 57°
2026-05-05 20:24 44.34589 2.61796 33949 ft 463 kts 57°
2026-05-05 20:24 44.38210 2.69254 33949 ft 464 kts 57°
2026-05-05 20:25 44.41822 2.76696 33944 ft 464 kts 57°
2026-05-05 20:25 44.45446 2.84187 33938 ft 464 kts 57°
2026-05-05 20:26 44.49066 2.91680 33934 ft 464 kts 57°
2026-05-05 20:26 44.52679 2.99180 33924 ft 465 kts 57°
2026-05-05 20:27 44.56281 3.06679 33926 ft 465 kts 57°
2026-05-05 20:27 44.59875 3.14198 33923 ft 465 kts 57°
2026-05-05 20:28 44.63289 3.21835 33923 ft 464 kts 62°
2026-05-05 20:28 44.66405 3.29769 33918 ft 464 kts 63°
2026-05-05 20:29 44.69467 3.37754 33920 ft 464 kts 63°
2026-05-05 20:29 44.72618 3.45745 33916 ft 465 kts 62°
2026-05-05 20:30 44.75776 3.53616 33914 ft 465 kts 62°
2026-05-05 20:30 44.78944 3.61536 33910 ft 464 kts 62°
2026-05-05 20:31 44.82089 3.69476 33907 ft 464 kts 62°
2026-05-05 20:31 44.85228 3.77426 33909 ft 464 kts 62°
2026-05-05 20:32 44.88358 3.85382 33910 ft 464 kts 62°
2026-05-05 20:32 44.91482 3.93347 33906 ft 464 kts 62°
2026-05-05 20:33 44.94600 4.01313 33906 ft 464 kts 62°
2026-05-05 20:33 44.97708 4.09293 33908 ft 464 kts 63°
2026-05-05 20:34 45.00820 4.17289 33910 ft 464 kts 63°
2026-05-05 20:34 45.03919 4.25264 33911 ft 463 kts 63°
2026-05-05 20:35 45.07015 4.33273 33910 ft 463 kts 63°
2026-05-05 20:35 45.10080 4.41221 33908 ft 463 kts 63°
2026-05-05 20:36 45.13163 4.49237 33905 ft 463 kts 63°
2026-05-05 20:36 45.16238 4.57265 33920 ft 468 kts 63°
2026-05-05 20:36 45.17803 4.61368 33527 ft 478 kts 63°
2026-05-05 20:37 45.19392 4.65529 32697 ft 481 kts 64°
2026-05-05 20:37 45.20447 4.68293 32243 ft 480 kts 64°
2026-05-05 20:37 45.22567 4.73847 31445 ft 476 kts 64°
2026-05-05 20:37 45.24134 4.77958 30888 ft 472 kts 65°
2026-05-05 20:38 45.25685 4.82034 30415 ft 468 kts 65°
2026-05-05 20:38 45.27227 4.86090 29922 ft 464 kts 65°
2026-05-05 20:38 45.28748 4.90103 29420 ft 459 kts 65°
2026-05-05 20:38 45.30247 4.94063 28977 ft 452 kts 65°
2026-05-05 20:39 45.31727 4.97977 28540 ft 447 kts 65°
2026-05-05 20:39 45.33182 5.01837 28103 ft 441 kts 65°
2026-05-05 20:39 45.34623 5.05665 27684 ft 436 kts 65°
2026-05-05 20:39 45.36043 5.09448 27244 ft 432 kts 65°
2026-05-05 20:40 45.37451 5.13209 26804 ft 428 kts 65°
2026-05-05 20:40 45.38851 5.16943 26371 ft 426 kts 65°
2026-05-05 20:40 45.40235 5.20641 25945 ft 423 kts 65°
2026-05-05 20:40 45.41613 5.24334 25477 ft 421 kts 65°
2026-05-05 20:41 45.42979 5.28002 25016 ft 419 kts 65°
2026-05-05 20:41 45.44341 5.31664 24576 ft 417 kts 65°
2026-05-05 20:41 45.45695 5.35300 24148 ft 414 kts 65°
2026-05-05 20:41 45.47047 5.38920 23673 ft 413 kts 65°
2026-05-05 20:42 45.48645 5.42321 23116 ft 416 kts 52°
2026-05-05 20:42 45.50705 5.45177 22694 ft 413 kts 40°
2026-05-05 20:42 45.53123 5.47414 22252 ft 411 kts 30°
2026-05-05 20:42 45.55591 5.49428 21685 ft 410 kts 30°
2026-05-05 20:43 45.58038 5.51450 21387 ft 403 kts 30°
2026-05-05 20:43 45.60415 5.53432 20926 ft 400 kts 30°
2026-05-05 20:43 45.62804 5.55434 20472 ft 397 kts 30°
2026-05-05 20:43 45.65181 5.57428 20036 ft 394 kts 30°
2026-05-05 20:44 45.67537 5.59405 19607 ft 391 kts 30°
2026-05-05 20:44 45.69884 5.61329 19210 ft 388 kts 29°
2026-05-05 20:44 45.72231 5.63191 18799 ft 384 kts 28°
2026-05-05 20:44 45.74570 5.65015 18399 ft 382 kts 28°
2026-05-05 20:45 45.79196 5.68607 17641 ft 373 kts 28°
2026-05-05 20:45 45.81434 5.70365 17503 ft 361 kts 28°
2026-05-05 20:45 45.83607 5.72085 17347 ft 353 kts 28°
2026-05-05 20:46 45.85743 5.73782 17183 ft 349 kts 28°
2026-05-05 20:46 45.87752 5.75718 17038 ft 347 kts 41°
2026-05-05 20:46 45.89429 5.78180 16884 ft 344 kts 53°
2026-05-05 20:46 45.90837 5.80957 16739 ft 344 kts 56°
2026-05-05 20:47 45.92219 5.83701 16587 ft 343 kts 56°
2026-05-05 20:47 45.93621 5.86464 16436 ft 342 kts 55°
2026-05-05 20:47 45.95028 5.89218 16285 ft 341 kts 54°
2026-05-05 20:47 45.96631 5.91719 16127 ft 341 kts 45°
2026-05-05 20:48 45.98312 5.94116 15986 ft 340 kts 45°
2026-05-05 20:48 45.99986 5.96512 15838 ft 339 kts 45°
2026-05-05 20:48 46.01653 5.98905 15682 ft 338 kts 46°
2026-05-05 20:48 46.03312 6.01290 15530 ft 337 kts 46°
2026-05-05 20:49 46.04955 6.03660 15375 ft 336 kts 46°
2026-05-05 20:49 46.06616 6.06061 15226 ft 335 kts 46°
2026-05-05 20:49 46.08260 6.08433 15066 ft 334 kts 46°
2026-05-05 20:49 46.09901 6.10801 14888 ft 334 kts 46°
2026-05-05 20:50 46.11541 6.13202 14469 ft 336 kts 46°
2026-05-05 20:50 46.12640 6.14830 14204 ft 335 kts 46°
2026-05-05 20:50 46.14791 6.18028 13693 ft 335 kts 46°
2026-05-05 20:50 46.16405 6.20435 13291 ft 333 kts 46°
2026-05-05 20:51 46.18010 6.22829 12918 ft 330 kts 46°
2026-05-05 20:51 46.19600 6.25205 12545 ft 329 kts 46°
2026-05-05 20:51 46.21191 6.27565 12169 ft 327 kts 46°
2026-05-05 20:51 46.22782 6.29903 11799 ft 325 kts 46°
2026-05-05 20:52 46.24368 6.32225 11431 ft 324 kts 46°
2026-05-05 20:52 46.25945 6.34533 11062 ft 322 kts 46°
2026-05-05 20:52 46.26974 6.36043 10824 ft 321 kts 46°
2026-05-05 20:52 46.28545 6.38353 10458 ft 319 kts 46°
2026-05-05 20:53 46.30098 6.40640 10095 ft 317 kts 46°
2026-05-05 20:53 46.31638 6.42915 9740 ft 315 kts 46°
2026-05-05 20:53 46.33151 6.45154 9344 ft 314 kts 46°
2026-05-05 20:53 46.34681 6.47423 8976 ft 311 kts 46°
2026-05-05 20:54 46.36186 6.49654 8659 ft 306 kts 46°
2026-05-05 20:54 46.37707 6.51723 8522 ft 295 kts 33°
2026-05-05 20:54 46.39576 6.52668 8392 ft 278 kts 359°
2026-05-05 20:54 46.41397 6.52162 8186 ft 262 kts 329°
2026-05-05 20:55 46.42804 6.50588 7810 ft 255 kts 310°
2026-05-05 20:55 46.44067 6.48792 7490 ft 253 kts 310°
2026-05-05 20:55 46.45259 6.46944 7184 ft 246 kts 297°
2026-05-05 20:55 46.45725 6.44690 6948 ft 229 kts 264°
2026-05-05 20:56 46.45273 6.42567 6695 ft 218 kts 233°
2026-05-05 20:56 46.44230 6.41013 6446 ft 214 kts 222°
2026-05-05 20:56 46.43178 6.39519 6197 ft 210 kts 224°
2026-05-05 20:56 46.42168 6.38017 5946 ft 205 kts 224°
2026-05-05 20:57 46.40885 6.36107 5746 ft 192 kts 224°
2026-05-05 20:57 46.40264 6.35185 5669 ft 185 kts 224°
2026-05-05 20:57 46.39377 6.33869 5426 ft 180 kts 224°
2026-05-05 20:57 46.38525 6.32608 5198 ft 175 kts 224°
2026-05-05 20:58 46.37685 6.31364 4971 ft 171 kts 224°
2026-05-05 20:58 46.36863 6.30147 4750 ft 168 kts 224°
2026-05-05 20:58 46.36055 6.28951 4530 ft 164 kts 224°
2026-05-05 20:58 46.35264 6.27782 4303 ft 161 kts 224°
2026-05-05 20:59 46.34488 6.26636 4081 ft 158 kts 224°
2026-05-05 20:59 46.33725 6.25509 3882 ft 156 kts 224°
2026-05-05 20:59 46.32981 6.24409 3676 ft 150 kts 223°
2026-05-05 20:59 46.32278 6.23371 3483 ft 142 kts 223°
2026-05-05 21:00 46.31595 6.22363 3299 ft 140 kts 224°
2026-05-05 21:00 46.30934 6.21388 3127 ft 132 kts 223°
2026-05-05 21:00 46.30299 6.20451 2941 ft 131 kts 223°
2026-05-05 21:00 46.29665 6.19517 2757 ft 129 kts 224°
2026-05-05 21:01 46.29029 6.18580 2562 ft 132 kts 224°
2026-05-05 21:01 46.28381 6.17626 2379 ft 134 kts 225°
2026-05-05 21:01 46.27723 6.16656 2183 ft 136 kts 226°
2026-05-05 21:01 46.27055 6.15673 1996 ft 137 kts 226°
2026-05-05 21:02 46.26386 6.14689 1809 ft 137 kts 226°
2026-05-05 21:02 46.25721 6.13712 1624 ft 136 kts 226°
2026-05-05 21:02 46.25062 6.12743 1442 ft 134 kts 225°
2026-05-05 21:02 46.24438 6.11826 1372 ft 115 kts 225°
2026-05-05 21:03 46.24003 6.11183 1377 ft 64 kts 225°
2026-05-05 21:03 46.23759 6.10849 1381 ft 31 kts 215°
2026-05-05 21:03 46.23628 6.10744 1379 ft 16 kts 200°
2026-05-05 21:03 46.23533 6.10705 1384 ft 6 kts 194°
2026-05-05 21:04 46.23505 6.10695 1388 ft 2 kts 194°
2026-05-05 21:04 46.23499 6.10693 1388 ft 1 kts 193°
2026-05-05 21:04 46.23489 6.10689 1387 ft 3 kts 197°
2026-05-05 21:04 46.23477 6.10683 1387 ft 1 kts 197°
2026-05-05 21:05 46.23473 6.10681 1388 ft 1 kts 196°
2026-05-05 21:05 46.23445 6.10670 1391 ft 9 kts 196°
2026-05-05 21:05 46.23371 6.10614 1398 ft 14 kts 230°
2026-05-05 21:05 46.23305 6.10507 1398 ft 14 kts 226°
2026-05-05 21:06 46.23234 6.10402 1396 ft 15 kts 226°
2026-05-05 21:06 46.23180 6.10319 1393 ft 7 kts 226°
2026-05-05 21:06 46.23145 6.10271 1394 ft 7 kts 211°
2026-05-05 21:06 46.23094 6.10264 1397 ft 8 kts 180°
2026-05-05 21:07 46.23062 6.10265 1393 ft 2 kts 180°
2026-05-05 21:07 46.23048 6.10265 1393 ft 0 kts 180°
2026-05-05 21:07 46.23047 6.10265 1393 ft 0 kts 180°